Location: Christchurch
(43.5330°S, 172.6330°E)
Time: 15:52:30
(UTC+12:00)

ISS - Pass Details

Date: 25 May 2021
Orbit: 417 x 422 km, 51.6° (Epoch: 22 June)

Event Time Altitude Azimuth Distance (km) Brightness Sun altitude
Exits shadow 06:33:53 20° 281° (W) 1,068 -2.2 -12.9°
Maximum altitude 06:36:05 55° 207° (SSW) 525 -3.6 -12.5°
Drops below altitude 10° 06:39:29 10° 128° (SE) 1,537 -0.4 -12.0°
Sets 06:41:38 0° 123° (ESE) 2,406 0.7 -11.6°
